RH
54 56 55 53 54 53 52 56 58 52 47 45 43 38 39 44 49 53 56 59 52 55
55 52 52 53 53 52 57 60 59 55 54 47 46 39 38 47 53 60 58 54 54 52
56 55 53 52 52 52 59 64 58 55 57 56 49 46 45 47 51 54 59 59 59 55
56 56 56 55 54 55 56 57 54 55 56 56 56 50 49 51 56 56 55 59 63 61
53 56 57 56 56 55 53 52 54 55 57 57 58 58 57 55 60 63 59 55 61 58
63 60 57 54 55 56 55 53 53 57 59 57 57 59 60 61 61 66 61 56 59 60
65 68 64 62 59 59 57 53 52 54 52 54 55 57 58 63 65 66 63 56 53 56
73 72 74 75 75 66 59 55 51 53 53 54 54 56 58 64 65 64 65 55 54 56
61 65 69 75 74 73 69 60 56 53 51 52 54 53 52 60 65 63 56 50 48 47
56 61 68 68 70 75 77 69 62 56 53 52 53 56 54 57 62 57 54 49 47 47
36 43 51 59 74 83 85 80 71 61 54 52 52 57 58 57 58 56 50 50 49 47
30 34 41 51 67 77 85 82 75 65 57 59 60 63 52 52 53 54 52 52 50 46
30 31 35 41 49 60 74 77 76 76 73 63 65 68 66 59 52 47 49 47 46 49
28 28 30 34 41 50 59 69 75 77 80 83 80 79 75 70 63 60 55 52 52 53